LHA280 OEJN-OERK

Flight info

Callsign LHA280
Flight time 1h 23m
Altitude 39000
Route EGREP T532 ORDEM
Aircraft A339/H-SDE1E2FGHIJ1J4RWXYZ/S

Departure

Time 2026-05-07 20:16
Airport King Abdulaziz International Airport (OEJN)

Arrival

Time 2026-05-07 21:39
Airport King Khalid International Airport (OERK)
Time Latitude Longitude Altitude Speed Heading
2026-05-07 19:36 21.69864 39.14413 64 ft 0 kts 250°
2026-05-07 19:59 21.69868 39.14425 64 ft 2 kts 250°
2026-05-07 20:00 21.69873 39.14440 64 ft 2 kts 249°
2026-05-07 20:00 21.69879 39.14456 64 ft 2 kts 250°
2026-05-07 20:00 21.69882 39.14465 64 ft 2 kts 248°
2026-05-07 20:00 21.69891 39.14478 64 ft 2 kts 204°
2026-05-07 20:01 21.69906 39.14481 64 ft 2 kts 168°
2026-05-07 20:01 21.69912 39.14478 64 ft 1 kts 158°
2026-05-07 20:01 21.69914 39.14478 64 ft 0 kts 159°
2026-05-07 20:03 21.69910 39.14479 64 ft 2 kts 159°
2026-05-07 20:03 21.69884 39.14490 64 ft 5 kts 158°
2026-05-07 20:04 21.69835 39.14512 64 ft 9 kts 154°
2026-05-07 20:04 21.69773 39.14555 64 ft 11 kts 151°
2026-05-07 20:04 21.69694 39.14594 64 ft 13 kts 158°
2026-05-07 20:04 21.69598 39.14630 64 ft 15 kts 160°
2026-05-07 20:05 21.69488 39.14673 64 ft 17 kts 159°
2026-05-07 20:05 21.69370 39.14719 64 ft 18 kts 160°
2026-05-07 20:05 21.69240 39.14770 64 ft 20 kts 160°
2026-05-07 20:05 21.69105 39.14823 64 ft 21 kts 159°
2026-05-07 20:06 21.68963 39.14878 64 ft 22 kts 159°
2026-05-07 20:06 21.68829 39.14931 64 ft 17 kts 162°
2026-05-07 20:06 21.68725 39.14972 64 ft 13 kts 153°
2026-05-07 20:06 21.68676 39.15050 64 ft 13 kts 85°
2026-05-07 20:07 21.68700 39.15152 64 ft 14 kts 69°
2026-05-07 20:07 21.68683 39.15250 64 ft 14 kts 139°
2026-05-07 20:07 21.68588 39.15297 64 ft 15 kts 160°
2026-05-07 20:07 21.68482 39.15339 64 ft 16 kts 160°
2026-05-07 20:08 21.68371 39.15383 64 ft 17 kts 159°
2026-05-07 20:08 21.68256 39.15429 64 ft 17 kts 159°
2026-05-07 20:08 21.68138 39.15477 64 ft 18 kts 159°
2026-05-07 20:08 21.68018 39.15526 64 ft 18 kts 159°
2026-05-07 20:09 21.67892 39.15576 64 ft 19 kts 159°
2026-05-07 20:09 21.67767 39.15625 64 ft 19 kts 160°
2026-05-07 20:09 21.67637 39.15676 64 ft 19 kts 160°
2026-05-07 20:10 21.67375 39.15779 64 ft 20 kts 160°
2026-05-07 20:10 21.67242 39.15830 64 ft 20 kts 160°
2026-05-07 20:10 21.67109 39.15883 64 ft 20 kts 160°
2026-05-07 20:10 21.66975 39.15935 64 ft 20 kts 160°
2026-05-07 20:11 21.66841 39.15989 64 ft 20 kts 160°
2026-05-07 20:11 21.66701 39.16044 64 ft 20 kts 160°
2026-05-07 20:11 21.66565 39.16098 64 ft 20 kts 160°
2026-05-07 20:11 21.66425 39.16153 64 ft 20 kts 159°
2026-05-07 20:12 21.66291 39.16207 64 ft 16 kts 159°
2026-05-07 20:12 21.66193 39.16245 64 ft 13 kts 160°
2026-05-07 20:12 21.66115 39.16280 64 ft 10 kts 144°
2026-05-07 20:12 21.66098 39.16304 64 ft 0 kts 114°
2026-05-07 20:13 21.66094 39.16315 64 ft 5 kts 107°
2026-05-07 20:14 21.66099 39.16388 64 ft 13 kts 71°
2026-05-07 20:14 21.66160 39.16459 64 ft 14 kts
2026-05-07 20:14 21.66213 39.16449 64 ft 0 kts 341°
2026-05-07 20:14 21.66214 39.16449 64 ft 1 kts 341°
2026-05-07 20:15 21.66251 39.16435 64 ft 24 kts 341°
2026-05-07 20:15 21.66650 39.16275 64 ft 95 kts 340°
2026-05-07 20:15 21.67469 39.15950 65 ft 153 kts 339°
2026-05-07 20:15 21.68530 39.15527 519 ft 165 kts 340°
2026-05-07 20:16 21.69573 39.15125 1264 ft 158 kts 342°
2026-05-07 20:16 21.70594 39.14748 2017 ft 154 kts 343°
2026-05-07 20:16 21.71648 39.14345 2508 ft 168 kts 341°
2026-05-07 20:16 21.72816 39.13882 2937 ft 186 kts 341°
2026-05-07 20:17 21.74095 39.13375 3364 ft 205 kts 341°
2026-05-07 20:17 21.75487 39.12824 3832 ft 223 kts 340°
2026-05-07 20:17 21.77006 39.12223 4301 ft 241 kts 340°
2026-05-07 20:17 21.78658 39.11569 4757 ft 260 kts 340°
2026-05-07 20:18 21.80390 39.10884 5276 ft 274 kts 339°
2026-05-07 20:18 21.82216 39.10160 5762 ft 281 kts 339°
2026-05-07 20:18 21.84051 39.09433 5980 ft 284 kts 339°
2026-05-07 20:18 21.85930 39.08688 5986 ft 284 kts 339°
2026-05-07 20:19 21.87770 39.07958 5993 ft 284 kts 339°
2026-05-07 20:19 21.89640 39.07206 5996 ft 284 kts 337°
2026-05-07 20:19 21.91452 39.06368 5987 ft 285 kts 335°
2026-05-07 20:19 21.93309 39.05561 6002 ft 288 kts 346°
2026-05-07 20:20 21.95306 39.05661 6374 ft 298 kts 21°
2026-05-07 20:20 21.96964 39.06946 7214 ft 294 kts 52°
2026-05-07 20:20 21.98086 39.08746 7961 ft 294 kts 59°
2026-05-07 20:20 21.99196 39.10607 8644 ft 298 kts 58°
2026-05-07 20:21 22.00346 39.12483 9376 ft 302 kts 58°
2026-05-07 20:21 22.01514 39.14337 10075 ft 305 kts 57°
2026-05-07 20:21 22.02739 39.16254 10598 ft 317 kts 57°
2026-05-07 20:21 22.04025 39.18250 10929 ft 335 kts 57°
2026-05-07 20:22 22.05394 39.20357 11438 ft 346 kts 56°
2026-05-07 20:22 22.06786 39.22490 12122 ft 351 kts 56°
2026-05-07 20:22 22.08198 39.24649 12858 ft 355 kts 57°
2026-05-07 20:22 22.09615 39.26815 13571 ft 360 kts 56°
2026-05-07 20:23 22.11067 39.29038 14299 ft 365 kts 56°
2026-05-07 20:23 22.12523 39.31269 15042 ft 369 kts 56°
2026-05-07 20:23 22.14022 39.33564 15738 ft 373 kts 56°
2026-05-07 20:23 22.15499 39.35828 16404 ft 378 kts 56°
2026-05-07 20:24 22.17024 39.38162 17071 ft 383 kts 56°
2026-05-07 20:24 22.18566 39.40525 17733 ft 387 kts 56°
2026-05-07 20:24 22.20129 39.42925 18414 ft 393 kts 56°
2026-05-07 20:24 22.21699 39.45335 19121 ft 396 kts 55°
2026-05-07 20:25 22.23274 39.47754 19863 ft 398 kts 55°
2026-05-07 20:25 22.24877 39.50216 20517 ft 402 kts 55°
2026-05-07 20:25 22.26477 39.52670 21122 ft 407 kts 55°
2026-05-07 20:25 22.28119 39.55193 21764 ft 412 kts 54°
2026-05-07 20:26 22.29757 39.57713 22366 ft 416 kts 54°
2026-05-07 20:26 22.31449 39.60313 22970 ft 421 kts 54°
2026-05-07 20:26 22.33140 39.62912 23570 ft 426 kts 54°
2026-05-07 20:26 22.34840 39.65527 24147 ft 431 kts 55°
2026-05-07 20:27 22.36551 39.68160 24701 ft 435 kts 55°
2026-05-07 20:27 22.38293 39.70844 25240 ft 439 kts 55°
2026-05-07 20:27 22.40061 39.73573 25786 ft 443 kts 55°
2026-05-07 20:27 22.41839 39.76315 26287 ft 448 kts 55°
2026-05-07 20:28 22.43621 39.79069 26784 ft 452 kts 55°
2026-05-07 20:28 22.45478 39.81806 27253 ft 456 kts 51°
2026-05-07 20:28 22.47570 39.84411 27720 ft 460 kts 45°
2026-05-07 20:28 22.49875 39.86820 28178 ft 463 kts 41°
2026-05-07 20:29 22.52285 39.89134 28631 ft 467 kts 40°
2026-05-07 20:29 22.54737 39.91444 29062 ft 471 kts 40°
2026-05-07 20:29 22.57216 39.93780 29455 ft 476 kts 40°
2026-05-07 20:29 22.59742 39.96175 29847 ft 480 kts 40°
2026-05-07 20:30 22.62257 39.98562 30191 ft 485 kts 40°
2026-05-07 20:30 22.64799 40.00987 30541 ft 490 kts 41°
2026-05-07 20:30 22.67347 40.03421 30866 ft 495 kts 41°
2026-05-07 20:30 22.69940 40.05901 31197 ft 500 kts 41°
2026-05-07 20:31 22.72551 40.08401 31544 ft 504 kts 41°
2026-05-07 20:31 22.75193 40.10933 31886 ft 508 kts 41°
2026-05-07 20:31 22.77844 40.13477 32196 ft 513 kts 41°
2026-05-07 20:31 22.80523 40.16048 32510 ft 517 kts 41°
2026-05-07 20:32 22.83240 40.18655 32839 ft 521 kts 41°
2026-05-07 20:32 22.85953 40.21260 33151 ft 525 kts 41°
2026-05-07 20:32 22.88672 40.23872 33501 ft 528 kts 42°
2026-05-07 20:32 22.91448 40.26541 33839 ft 531 kts 41°
2026-05-07 20:33 22.94219 40.29209 34175 ft 535 kts 41°
2026-05-07 20:33 22.97021 40.31907 34485 ft 539 kts 41°
2026-05-07 20:33 22.99806 40.34590 34808 ft 542 kts 41°
2026-05-07 20:33 23.02634 40.37317 35216 ft 543 kts 41°
2026-05-07 20:34 23.05451 40.40034 35702 ft 542 kts 41°
2026-05-07 20:34 23.08248 40.42732 36157 ft 542 kts 41°
2026-05-07 20:34 23.11099 40.45485 36557 ft 542 kts 40°
2026-05-07 20:34 23.13916 40.48200 36901 ft 543 kts 40°
2026-05-07 20:35 23.16711 40.50902 37232 ft 544 kts 40°
2026-05-07 20:35 23.19575 40.53666 37564 ft 545 kts 41°
2026-05-07 20:35 23.22335 40.56492 37862 ft 547 kts 45°
2026-05-07 20:35 23.24877 40.59568 38127 ft 548 kts 52°
2026-05-07 20:36 23.27128 40.62848 38360 ft 549 kts 58°
2026-05-07 20:36 23.29131 40.66404 38598 ft 549 kts 65°
2026-05-07 20:36 23.30801 40.70107 38818 ft 548 kts 71°
2026-05-07 20:36 23.32201 40.73936 39028 ft 547 kts 74°
2026-05-07 20:37 23.33525 40.77844 39047 ft 548 kts 75°
2026-05-07 20:37 23.36117 40.85577 39053 ft 547 kts 75°
2026-05-07 20:38 23.38765 40.93327 39046 ft 548 kts 74°
2026-05-07 20:38 23.41430 41.01038 39053 ft 547 kts 73°
2026-05-07 20:39 23.44098 41.08767 39060 ft 547 kts 74°
2026-05-07 20:39 23.46759 41.16495 39069 ft 548 kts 73°
2026-05-07 20:40 23.49432 41.24249 39067 ft 548 kts 74°
2026-05-07 20:40 23.52107 41.32040 39070 ft 548 kts 74°
2026-05-07 20:41 23.54760 41.39786 39070 ft 547 kts 73°
2026-05-07 20:41 23.57408 41.47517 39062 ft 547 kts 73°
2026-05-07 20:42 23.60060 41.55268 39067 ft 546 kts 73°
2026-05-07 20:42 23.62696 41.63004 39071 ft 547 kts 73°
2026-05-07 20:43 23.65338 41.70761 39063 ft 547 kts 74°
2026-05-07 20:43 23.67946 41.78507 39066 ft 546 kts 75°
2026-05-07 20:44 23.70422 41.86308 39068 ft 545 kts 76°
2026-05-07 20:44 23.72887 41.94120 39065 ft 545 kts 75°
2026-05-07 20:45 23.75396 42.01917 39055 ft 546 kts 74°
2026-05-07 20:45 23.78038 42.09625 39049 ft 547 kts 73°
2026-05-07 20:46 23.80707 42.17365 39049 ft 546 kts 73°
2026-05-07 20:46 23.83362 42.25121 39052 ft 545 kts 73°
2026-05-07 20:47 23.86003 42.32892 39052 ft 545 kts 73°
2026-05-07 20:47 23.88627 42.40620 39059 ft 544 kts 73°
2026-05-07 20:48 23.91246 42.48356 39062 ft 546 kts 73°
2026-05-07 20:48 23.93871 42.56110 39067 ft 544 kts 73°
2026-05-07 20:49 23.96479 42.63828 39068 ft 543 kts 74°
2026-05-07 20:49 23.99091 42.71590 39068 ft 544 kts 73°
2026-05-07 20:50 24.01693 42.79322 39074 ft 544 kts 74°
2026-05-07 20:50 24.04291 42.87058 39074 ft 543 kts 73°
2026-05-07 20:51 24.06856 42.94781 39081 ft 542 kts 74°
2026-05-07 20:51 24.09412 43.02567 39089 ft 542 kts 74°
2026-05-07 20:52 24.11949 43.10303 39089 ft 543 kts 74°
2026-05-07 20:52 24.14479 43.18020 39080 ft 543 kts 74°
2026-05-07 20:53 24.17018 43.25764 39090 ft 542 kts 74°
2026-05-07 20:53 24.19554 43.33532 39089 ft 541 kts 74°
2026-05-07 20:54 24.22080 43.41287 39090 ft 543 kts 75°
2026-05-07 20:54 24.24610 43.49056 39087 ft 542 kts 74°
2026-05-07 20:55 24.26147 43.56947 39092 ft 527 kts 93°
2026-05-07 20:55 24.26287 43.60967 38892 ft 528 kts 95°
2026-05-07 20:55 24.26366 43.64951 38458 ft 526 kts 95°
2026-05-07 20:55 24.26445 43.68962 38033 ft 521 kts 95°
2026-05-07 20:56 24.26541 43.72863 37622 ft 517 kts 95°
2026-05-07 20:56 24.26655 43.76797 37328 ft 513 kts 95°
2026-05-07 20:56 24.26772 43.80660 37055 ft 515 kts 95°
2026-05-07 20:56 24.26898 43.84605 36773 ft 516 kts 95°
2026-05-07 20:57 24.27028 43.88497 36507 ft 515 kts 95°
2026-05-07 20:57 24.27160 43.92397 36229 ft 515 kts 94°
2026-05-07 20:57 24.27293 43.96314 35956 ft 514 kts 94°
2026-05-07 20:57 24.27427 44.00250 35672 ft 514 kts 95°
2026-05-07 20:58 24.27556 44.04105 35341 ft 514 kts 94°
2026-05-07 20:58 24.27683 44.08038 35005 ft 515 kts 94°
2026-05-07 20:58 24.27812 44.11902 34717 ft 512 kts 94°
2026-05-07 20:58 24.27942 44.15807 34462 ft 510 kts 94°
2026-05-07 20:59 24.28065 44.19655 34234 ft 509 kts 94°
2026-05-07 20:59 24.28190 44.23525 34020 ft 506 kts 94°
2026-05-07 20:59 24.28312 44.27348 33801 ft 505 kts 94°
2026-05-07 20:59 24.28434 44.31199 33593 ft 504 kts 94°
2026-05-07 21:00 24.28555 44.35006 33367 ft 502 kts 94°
2026-05-07 21:00 24.28675 44.38804 33162 ft 500 kts 94°
2026-05-07 21:00 24.28791 44.42603 32944 ft 499 kts 94°
2026-05-07 21:00 24.28906 44.46383 32756 ft 497 kts 94°
2026-05-07 21:01 24.29020 44.50156 32557 ft 495 kts 94°
2026-05-07 21:01 24.29135 44.53927 32367 ft 492 kts 94°
2026-05-07 21:01 24.29245 44.57625 32165 ft 490 kts 94°
2026-05-07 21:01 24.29354 44.61329 31976 ft 489 kts 93°
2026-05-07 21:02 24.29464 44.65023 31739 ft 484 kts 94°
2026-05-07 21:02 24.29571 44.68665 31364 ft 479 kts 94°
2026-05-07 21:02 24.29675 44.72297 30938 ft 475 kts 93°
2026-05-07 21:02 24.29775 44.75880 30539 ft 471 kts 93°
2026-05-07 21:03 24.29876 44.79456 30154 ft 466 kts 92°
2026-05-07 21:03 24.29977 44.82962 29789 ft 461 kts 92°
2026-05-07 21:03 24.30074 44.86434 29402 ft 457 kts 92°
2026-05-07 21:03 24.30171 44.89923 28992 ft 453 kts 92°
2026-05-07 21:04 24.30264 44.93320 28571 ft 449 kts 92°
2026-05-07 21:04 24.30359 44.96713 28151 ft 445 kts 91°
2026-05-07 21:04 24.30453 45.00113 27728 ft 442 kts 92°
2026-05-07 21:04 24.30541 45.03419 27305 ft 439 kts 92°
2026-05-07 21:05 24.30630 45.06743 26864 ft 437 kts 91°
2026-05-07 21:05 24.30718 45.10060 26452 ft 433 kts 91°
2026-05-07 21:05 24.30804 45.13345 26026 ft 431 kts 91°
2026-05-07 21:05 24.30889 45.16616 25619 ft 428 kts 91°
2026-05-07 21:06 24.30973 45.19855 25201 ft 425 kts 91°
2026-05-07 21:06 24.31054 45.23040 24801 ft 422 kts 91°
2026-05-07 21:06 24.31137 45.26241 24383 ft 420 kts 91°
2026-05-07 21:06 24.31218 45.29442 23960 ft 418 kts 91°
2026-05-07 21:07 24.31296 45.32597 23560 ft 415 kts 91°
2026-05-07 21:07 24.31375 45.35748 23138 ft 413 kts 91°
2026-05-07 21:07 24.31451 45.38878 22739 ft 410 kts 91°
2026-05-07 21:07 24.31527 45.41970 22370 ft 406 kts 91°
2026-05-07 21:08 24.31603 45.45066 21996 ft 403 kts 91°
2026-05-07 21:08 24.31677 45.48085 21647 ft 400 kts 91°
2026-05-07 21:08 24.31750 45.51121 21295 ft 396 kts 91°
2026-05-07 21:08 24.31822 45.54121 20959 ft 392 kts 91°
2026-05-07 21:09 24.31892 45.57070 20600 ft 389 kts 91°
2026-05-07 21:09 24.31960 45.60010 20249 ft 385 kts 91°
2026-05-07 21:09 24.32026 45.62916 19896 ft 382 kts 91°
2026-05-07 21:09 24.32091 45.65800 19558 ft 378 kts 92°
2026-05-07 21:10 24.32157 45.68676 19210 ft 374 kts 92°
2026-05-07 21:10 24.32220 45.71507 18873 ft 370 kts 92°
2026-05-07 21:10 24.32281 45.74320 18545 ft 366 kts 92°
2026-05-07 21:10 24.32343 45.77076 18205 ft 363 kts 92°
2026-05-07 21:11 24.32404 45.79825 17857 ft 359 kts 92°
2026-05-07 21:11 24.32463 45.82559 17518 ft 356 kts 92°
2026-05-07 21:11 24.32576 45.87917 16827 ft 350 kts 92°
2026-05-07 21:12 24.32633 45.90570 16472 ft 347 kts 92°
2026-05-07 21:12 24.32687 45.93171 16117 ft 345 kts 92°
2026-05-07 21:12 24.32741 45.95795 15762 ft 343 kts 92°
2026-05-07 21:12 24.32795 45.98391 15417 ft 340 kts 92°
2026-05-07 21:13 24.32848 46.00948 15084 ft 337 kts 92°
2026-05-07 21:13 24.32901 46.03514 14733 ft 335 kts 92°
2026-05-07 21:13 24.32951 46.06061 14373 ft 333 kts 92°
2026-05-07 21:13 24.33002 46.08579 14036 ft 331 kts 92°
2026-05-07 21:14 24.33050 46.11081 13697 ft 328 kts 91°
2026-05-07 21:14 24.33099 46.13576 13344 ft 327 kts 91°
2026-05-07 21:14 24.33148 46.16051 13011 ft 324 kts 91°
2026-05-07 21:14 24.33195 46.18513 12665 ft 322 kts 91°
2026-05-07 21:15 24.33241 46.20946 12313 ft 321 kts 91°
2026-05-07 21:15 24.33287 46.23364 12055 ft 316 kts 91°
2026-05-07 21:15 24.33334 46.25746 11910 ft 307 kts 91°
2026-05-07 21:15 24.33378 46.28072 11765 ft 299 kts 91°
2026-05-07 21:16 24.33421 46.30320 11630 ft 292 kts 91°
2026-05-07 21:16 24.33463 46.32495 11501 ft 285 kts 91°
2026-05-07 21:16 24.33503 46.34660 11372 ft 278 kts 91°
2026-05-07 21:16 24.33541 46.36743 11244 ft 271 kts 91°
2026-05-07 21:17 24.33577 46.38784 11050 ft 268 kts 91°
2026-05-07 21:17 24.33613 46.40812 10802 ft 267 kts 91°
2026-05-07 21:17 24.33648 46.42870 10544 ft 267 kts 91°
2026-05-07 21:17 24.33684 46.44880 10335 ft 264 kts 91°
2026-05-07 21:18 24.33719 46.46861 10221 ft 258 kts 91°
2026-05-07 21:18 24.33753 46.48797 10105 ft 252 kts 91°
2026-05-07 21:18 24.33787 46.50715 9992 ft 246 kts 91°
2026-05-07 21:18 24.33819 46.52556 9880 ft 240 kts 92°
2026-05-07 21:19 24.33850 46.54360 9769 ft 235 kts 91°
2026-05-07 21:19 24.33881 46.56129 9661 ft 229 kts 92°
2026-05-07 21:19 24.33910 46.57868 9506 ft 226 kts 92°
2026-05-07 21:19 24.33938 46.59579 9311 ft 225 kts 92°
2026-05-07 21:20 24.33964 46.61290 9100 ft 225 kts 91°
2026-05-07 21:20 24.33991 46.62994 8896 ft 225 kts 91°
2026-05-07 21:20 24.34019 46.64700 8698 ft 224 kts 91°
2026-05-07 21:20 24.34047 46.66410 8509 ft 223 kts 92°
2026-05-07 21:21 24.34072 46.68096 8321 ft 222 kts 92°
2026-05-07 21:21 24.34099 46.69788 8131 ft 221 kts 91°
2026-05-07 21:21 24.34126 46.71474 7944 ft 220 kts 91°
2026-05-07 21:21 24.34153 46.73145 7764 ft 219 kts 91°
2026-05-07 21:22 24.34179 46.74810 7571 ft 218 kts 91°
2026-05-07 21:22 24.34205 46.76463 7391 ft 217 kts 91°
2026-05-07 21:22 24.34230 46.78120 7205 ft 217 kts 91°
2026-05-07 21:22 24.34257 46.79758 7037 ft 215 kts 91°
2026-05-07 21:23 24.34282 46.81386 6994 ft 214 kts 91°
2026-05-07 21:23 24.34308 46.83040 6989 ft 216 kts 91°
2026-05-07 21:23 24.34333 46.84688 6985 ft 217 kts 91°
2026-05-07 21:23 24.34357 46.86328 6983 ft 217 kts 91°
2026-05-07 21:24 24.34381 46.87962 6975 ft 207 kts 91°
2026-05-07 21:24 24.34405 46.89491 6970 ft 197 kts 91°
2026-05-07 21:24 24.34428 46.90965 6972 ft 192 kts 92°
2026-05-07 21:24 24.34448 46.92431 6973 ft 193 kts 91°
2026-05-07 21:25 24.34545 46.93897 6973 ft 196 kts 81°
2026-05-07 21:25 24.35018 46.95322 6970 ft 200 kts 66°
2026-05-07 21:25 24.35697 46.96662 6969 ft 201 kts 64°
2026-05-07 21:25 24.36398 46.97977 6966 ft 201 kts 64°
2026-05-07 21:26 24.37100 46.99297 6967 ft 201 kts 64°
2026-05-07 21:26 24.37802 47.00627 6967 ft 201 kts 64°
2026-05-07 21:26 24.38555 47.01932 6961 ft 203 kts 48°
2026-05-07 21:26 24.39767 47.02731 6962 ft 212 kts 15°
2026-05-07 21:27 24.41249 47.02676 6967 ft 218 kts 340°
2026-05-07 21:27 24.42608 47.01921 6977 ft 219 kts 330°
2026-05-07 21:27 24.43916 47.01061 6977 ft 219 kts 329°
2026-05-07 21:27 24.45230 47.00194 6979 ft 219 kts 330°
2026-05-07 21:28 24.46555 46.99339 6981 ft 219 kts 330°
2026-05-07 21:28 24.47865 46.98508 6984 ft 219 kts 330°
2026-05-07 21:28 24.49197 46.97669 6986 ft 219 kts 330°
2026-05-07 21:28 24.50512 46.96844 6987 ft 219 kts 331°
2026-05-07 21:29 24.51857 46.96000 6991 ft 220 kts 331°
2026-05-07 21:29 24.53178 46.95172 6991 ft 219 kts 331°
2026-05-07 21:29 24.54503 46.94340 6991 ft 218 kts 331°
2026-05-07 21:29 24.55831 46.93507 6992 ft 219 kts 331°
2026-05-07 21:30 24.57151 46.92679 6994 ft 219 kts 330°
2026-05-07 21:30 24.58477 46.91847 6995 ft 218 kts 330°
2026-05-07 21:30 24.59804 46.91013 6995 ft 218 kts 330°
2026-05-07 21:30 24.61115 46.90190 6997 ft 218 kts 330°
2026-05-07 21:31 24.62438 46.89357 6996 ft 218 kts 331°
2026-05-07 21:31 24.63765 46.88524 6997 ft 218 kts 331°
2026-05-07 21:31 24.65084 46.87696 6996 ft 218 kts 331°
2026-05-07 21:31 24.66392 46.86874 6988 ft 210 kts 331°
2026-05-07 21:32 24.67627 46.86097 6937 ft 202 kts 330°
2026-05-07 21:32 24.68832 46.85338 6826 ft 197 kts 331°
2026-05-07 21:32 24.70045 46.84637 6666 ft 195 kts 339°
2026-05-07 21:32 24.71305 46.84128 6481 ft 194 kts 343°
2026-05-07 21:33 24.72597 46.83669 6303 ft 193 kts 344°
2026-05-07 21:33 24.73873 46.83223 6138 ft 192 kts 344°
2026-05-07 21:33 24.75142 46.82775 5974 ft 191 kts 345°
2026-05-07 21:33 24.76413 46.82323 5816 ft 189 kts 345°
2026-05-07 21:34 24.77650 46.81879 5658 ft 187 kts 345°
2026-05-07 21:34 24.78880 46.81438 5502 ft 185 kts 345°
2026-05-07 21:34 24.80088 46.80998 5341 ft 178 kts 343°
2026-05-07 21:34 24.81209 46.80492 5178 ft 169 kts 339°
2026-05-07 21:35 24.82245 46.79933 4980 ft 163 kts 336°
2026-05-07 21:35 24.83229 46.79349 4799 ft 155 kts 335°
2026-05-07 21:35 24.84157 46.78773 4572 ft 151 kts 335°
2026-05-07 21:35 24.85063 46.78199 4319 ft 149 kts 335°
2026-05-07 21:36 24.85950 46.77635 4061 ft 147 kts 335°
2026-05-07 21:36 24.86828 46.77076 3806 ft 145 kts 336°
2026-05-07 21:36 24.87701 46.76520 3565 ft 141 kts 337°
2026-05-07 21:36 24.88539 46.75988 3507 ft 140 kts 336°
2026-05-07 21:37 24.89389 46.75451 3504 ft 140 kts 336°
2026-05-07 21:37 24.90233 46.74915 3500 ft 140 kts 337°
2026-05-07 21:37 24.91102 46.74379 3183 ft 146 kts 337°
2026-05-07 21:37 24.91998 46.73806 2862 ft 154 kts 335°
2026-05-07 21:38 24.92937 46.73208 2522 ft 158 kts 334°
2026-05-07 21:38 24.93903 46.72595 2189 ft 161 kts 332°
2026-05-07 21:38 24.94847 46.72003 2060 ft 142 kts 332°
2026-05-07 21:38 24.95482 46.71604 2059 ft 62 kts 329°
2026-05-07 21:39 24.95631 46.71507 2059 ft 7 kts 330°
2026-05-07 21:39 24.95690 46.71469 2059 ft 11 kts 329°
2026-05-07 21:39 24.95770 46.71415 2059 ft 14 kts 328°
2026-05-07 21:39 24.95865 46.71349 2059 ft 16 kts 325°
2026-05-07 21:40 24.95948 46.71259 2059 ft 16 kts 306°
2026-05-07 21:40 24.95993 46.71141 2059 ft 16 kts 280°
2026-05-07 21:40 24.95984 46.71012 2059 ft 16 kts 249°
2026-05-07 21:40 24.95929 46.70898 2060 ft 17 kts 241°
2026-05-07 21:41 24.95874 46.70790 2060 ft 11 kts 241°
2026-05-07 21:41 24.95869 46.70709 2060 ft 11 kts 301°
2026-05-07 21:41 24.95904 46.70630 2060 ft 11 kts 271°
2026-05-07 21:41 24.95896 46.70575 2060 ft 5 kts 258°
2026-05-07 21:42 24.95893 46.70561 2060 ft 2 kts 257°
2026-05-07 21:42 24.95892 46.70555 2060 ft 0 kts 257°
2026-05-07 21:42 24.95891 46.70554 2060 ft 0 kts 257°
2026-05-07 21:42 24.95891 46.70551 2060 ft 0 kts 257°
2026-05-07 21:43 24.95890 46.70548 2060 ft 0 kts 257°